EW1587 Weather Reports


Display with metric or nautical units.
time (UTC)temp
F
wind
direction
speed
MPH
gust
MPH
rain 1hr
in
rain 24hr
in
rain mn
in
humidity
%
barometer
mb
20260506051044 34 51 1.0 3.0 0.00 0.00 0.00 64 1015.3
20260506050544 35 49 1.0 3.0 0.00 0.00 0.00 63 1015.3
20260506045042 35 51 2.0 6.0 0.00 0.00 0.00 62 1015.2
20260506044542 35 71 2.0 6.0 0.00 0.00 0.00 62 1015.2
20260506044141 36 49 1.0 8.0 0.00 0.00 0.00 62 1015.2
20260506043541 35 40 2.0 8.0 0.00 0.00 0.00 62 1015.2
20260506043041 36 41 0.0 2.0 0.00 0.00 0.00 62 1015.2
20260506042541 36 12 0.0 2.0 0.00 0.00 0.00 61 1015.1
20260506042040 36 30 0.0 4.0 0.00 0.00 0.00 61 1015.1
20260506041540 36 12 1.0 4.0 0.00 0.00 0.00 61 1015.1
20260506041039 36 13 1.0 4.0 0.00 0.00 0.00 61 1015.1
20260506040539 36 18 1.0 7.0 0.00 0.00 0.00 61 1015.1
20260506040038 36 18 2.0 7.0 0.00 0.00 0.00 61 1015.0
20260506035537 36 22 0.0 3.0 0.00 0.00 0.00 61 1015.0
20260506035039 36 20 0.0 3.0 0.00 0.00 0.00 60 1014.9
20260506034545 37 16 0.0 5.0 0.00 0.00 0.00 60 1014.9
20260506034035 37 11 0.0 5.0 0.00 0.00 0.00 60 1014.9
20260506033534 37 11 1.0 4.0 0.00 0.00 0.00 60 1014.8
20260506033034 37 360 0.0 4.0 0.00 0.00 0.00 60 1014.7
20260506032537 37 39 1.0 4.0 0.00 0.00 0.00 60 1014.7
20260506032034 37 34 0.0 2.0 0.00 0.00 0.00 60 1014.6
20260506031534 37 15 0.0 2.0 0.00 0.00 0.00 59 1014.6
20260506031034 37 38 0.0 3.0 0.00 0.00 0.00 59 1014.6
20260506030533 37 8 0.0 3.0 0.00 0.00 0.00 58 1014.6
20260506030039 38 44 0.0 3.0 0.00 0.00 0.00 58 1014.6
20260506025532 38 23 0.0 5.0 0.00 0.00 0.00 57 1014.4
20260506025031 38 27 1.0 6.0 0.00 0.00 0.00 56 1014.4
20260506024553 39 25 1.0 7.0 0.00 0.00 0.00 56 1014.5
20260506024031 39 359 3.0 8.0 0.00 0.00 0.00 56 1014.5
20260506023531 39 356 2.0 8.0 0.00 0.00 0.00 56 1014.4
20260506023029 39 335 3.0 9.0 0.00 0.00 0.00 56 1014.3
20260506022528 39 13 1.0 9.0 0.00 0.00 0.00 56 1014.2
20260506022027 39 340 3.0 6.0 0.00 0.00 0.00 56 1014.2
20260506021528 39 358 1.0 8.0 0.00 0.00 0.00 56 1014.1
20260506021028 39 359 3.0 8.0 0.00 0.00 0.00 55 1014.0
20260506020526 40 345 2.0 8.0 0.00 0.00 0.00 55 1013.9
20260506020024 40 18 3.0 11.0 0.00 0.00 0.00 55 1013.9
20260506015524 40 19 4.0 11.0 0.00 0.00 0.00 55 1013.8
20260506015024 40 12 4.0 9.0 0.00 0.00 0.00 54 1013.7
20260506014522 40 352 3.0 9.0 0.00 0.00 0.00 54 1013.7
20260506014023 41 12 3.0 8.0 0.00 0.00 0.00 54 1013.6
20260506013522 41 332 3.0 9.0 0.00 0.00 0.00 53 1013.6
20260506013034 41 8 3.0 9.0 0.00 0.00 0.00 53 1013.5
20260506012522 41 345 4.0 10.0 0.00 0.00 0.00 53 1013.5
20260506012020 42 338 3.0 10.0 0.00 0.00 0.00 52 1013.3
20260506011520 42 345 3.0 13.0 0.00 0.00 0.00 52 1013.3
20260506011020 42 335 5.0 11.0 0.00 0.00 0.00 52 1013.3
20260506010519 42 51 4.0 13.0 0.00 0.00 0.00 51 1013.1
20260506010024 43 333 5.0 13.0 0.00 0.00 0.00 50 1013.0
20260506005517 43 12 4.0 14.0 0.00 0.00 0.00 49 1013.0
20260506005017 44 341 5.0 14.0 0.00 0.00 0.00 48 1013.0
20260506004517 44 330 4.0 12.0 0.00 0.00 0.00 48 1013.0
20260506004017 44 34 5.0 15.0 0.00 0.00 0.00 47 1012.9
20260506003517 44 9 7.0 16.0 0.00 0.00 0.00 46 1012.9
20260506003018 44 360 6.0 16.0 0.00 0.00 0.00 46 1012.8
20260506002515 44 349 3.0 12.0 0.00 0.00 0.00 46 1012.8
20260506002015 45 325 4.0 13.0 0.00 0.00 0.00 46 1012.5
20260506001514 45 342 3.0 13.0 0.00 0.00 0.00 46 1012.5
20260506001014 45 26 3.0 10.0 0.00 0.00 0.00 45 1012.5
20260506000514 45 46 5.0 10.0 0.00 0.00 0.00 45 1012.4
20260506000013 45 27 2.0 11.0 0.00 0.00 0.00 45 1012.4
20260505235512 45 49 3.0 13.0 0.00 0.00 0.00 45 1012.4
20260505235012 45 13 4.0 13.0 0.00 0.00 0.00 44 1012.4
20260505234512 46 323 4.0 17.0 0.00 0.00 0.00 44 1012.3
20260505234013 46 325 6.0 16.0 0.00 0.00 0.00 44 1012.3
20260505233510 45 311 3.0 10.0 0.00 0.00 0.00 45 1012.2
20260505233015 46 12 5.0 16.0 0.00 0.00 0.00 44 1012.2
20260505232508 46 46 8.0 16.0 0.00 0.00 0.00 44 1012.2
20260505232008 46 19 4.0 13.0 0.00 0.00 0.00 44 1012.0
20260505231508 47 342 6.0 12.0 0.00 0.00 0.00 43 1012.0
20260505231013 47 351 8.0 15.0 0.00 0.00 0.00 43 1011.9
20260505230508 47 290 5.0 15.0 0.00 0.00 0.00 44 1011.9
20260505230022 47 14 6.0 15.0 0.00 0.00 0.00 43 1012.0
20260505225507 47 323 7.0 15.0 0.00 0.00 0.00 43 1011.9
20260505225007 47 325 5.0 14.0 0.00 0.00 0.00 43 1011.8
20260505224506 47 340 7.0 17.0 0.00 0.00 0.00 42 1011.9
20260505224011 48 333 6.0 13.0 0.00 0.00 0.00 42 1011.8
20260505223506 47 320 3.0 10.0 0.00 0.00 0.00 43 1011.8
20260505223006 47 309 3.0 11.0 0.00 0.00 0.00 43 1011.8
20260505222506 47 326 4.0 17.0 0.00 0.00 0.00 43 1011.8
20260505222006 47 345 7.0 17.0 0.00 0.00 0.00 42 1011.8
20260505221506 48 339 6.0 15.0 0.00 0.00 0.00 41 1011.7
20260505221005 48 349 4.0 15.0 0.00 0.00 0.00 41 1011.6
20260505220505 47 93 7.0 15.0 0.00 0.00 0.00 41 1011.6
20260505220006 48 314 6.0 16.0 0.00 0.00 0.00 41 1011.6
20260505215505 48 278 9.0 16.0 0.00 0.00 0.00 40 1011.5
20260505215005 48 274 6.0 18.0 0.00 0.00 0.00 41 1011.7
20260505214506 48 328 6.0 18.0 0.00 0.00 0.00 40 1011.7
20260505214006 48 274 7.0 14.0 0.00 0.00 0.00 43 1011.8
20260505213503 48 294 4.0 12.0 0.00 0.00 0.00 43 1011.8
20260505213002 47 300 5.0 12.0 0.00 0.00 0.00 45 1011.8
20260505212504 46 340 6.0 19.0 0.00 0.00 0.00 44 1011.9
20260505212002 47 278 13.0 19.0 0.00 0.00 0.00 42 1011.8
20260505211502 47 303 8.0 19.0 0.00 0.00 0.00 43 1011.9
20260505211002 47 293 10.0 19.0 0.00 0.00 0.00 44 1011.8
20260505210601 47 41 5.0 13.0 0.00 0.00 0.00 42 1011.9
20260505210100 47 328 4.0 9.0 0.00 0.00 0.00 42 1011.9
20260505205559 47 248 2.0 9.0 0.00 0.00 0.00 44 1011.9
20260505205100 46 353 5.0 11.0 0.00 0.00 0.00 43 1011.9
20260505204607 46 20 4.0 16.0 0.00 0.00 0.00 43 1012.0
20260505204058 46 315 7.0 16.0 0.00 0.00 0.00 44 1012.0
20260505203559 46 298 5.0 18.0 0.00 0.00 0.00 43 1012.0
20260505203116 46 341 8.0 17.0 0.00 0.00 0.00 43 1012.1
20260505202559 46 326 4.0 13.0 0.00 0.00 0.00 43 1012.0
20260505202057 46 238 4.0 15.0 0.00 0.00 0.00 44 1012.0
20260505201558 46 316 8.0 15.0 0.00 0.00 0.00 44 1012.0
20260505201057 46 298 7.0 14.0 0.00 0.00 0.00 44 1012.1
20260505200600 46 307 5.0 15.0 0.00 0.00 0.00 44 1012.1
20260505200101 47 311 6.0 15.0 0.00 0.00 0.00 43 1012.1
20260505195558 47 44 3.0 14.0 0.00 0.00 0.00 44 1012.0
20260505195056 46 283 5.0 15.0 0.00 0.00 0.00 43 1012.0
20260505194610 47 330 6.0 17.0 0.00 0.00 0.00 44 1012.1
20260505194059 46 297 6.0 17.0 0.00 0.00 0.00 43 1011.9
20260505194005 47 338 7.0 17.0 0.00 0.00 0.00 43 1012.0
20260505193555 46 296 4.0 16.0 0.00 0.00 0.00 43 1012.0
20260505193512 46 319 4.0 16.0 0.00 0.00 0.00 42 1012.0
20260505193107 47 313 7.0 16.0 0.00 0.00 0.00 43 1012.0
20260505192554 46 280 6.0 16.0 0.00 0.00 0.00 43 1012.0
20260505192054 46 349 6.0 16.0 0.00 0.00 0.00 43 1012.0
20260505191554 46 302 6.0 17.0 0.00 0.00 0.00 43 1012.1
20260505191053 46 349 8.0 17.0 0.00 0.00 0.00 43 1012.1
20260505190557 46 85 3.0 14.0 0.00 0.00 0.00 44 1011.9
20260505190053 46 356 7.0 14.0 0.00 0.00 0.00 43 1012.1
20260505185556 46 324 5.0 12.0 0.00 0.00 0.00 43 1012.0
20260505185052 46 323 5.0 16.0 0.00 0.00 0.00 43 1012.0
20260505184553 46 281 4.0 17.0 0.00 0.00 0.00 44 1012.1
20260505184054 45 297 8.0 17.0 0.00 0.00 0.00 44 1012.0
20260505183555 46 270 9.0 16.0 0.00 0.00 0.00 43 1012.0
20260505183058 46 328 6.0 16.0 0.00 0.00 0.00 46 1012.0
20260505182550 45 291 6.0 16.0 0.00 0.00 0.00 46 1012.0
20260505182050 45 303 5.0 15.0 0.00 0.00 0.00 45 1012.0
20260505181550 45 337 7.0 14.0 0.00 0.00 0.00 45 1012.0
20260505181049 45 10 5.0 14.0 0.00 0.00 0.00 45 1012.0
20260505180549 45 250 6.0 14.0 0.00 0.00 0.00 44 1011.9
20260505180051 45 300 6.0 17.0 0.00 0.00 0.00 44 1011.9
20260505175548 45 328 6.0 17.0 0.00 0.00 0.00 46 1011.9
20260505175048 45 280 8.0 16.0 0.00 0.00 0.00 46 1011.8
20260505174648 45 269 8.0 16.0 0.00 0.00 0.00 46 1011.8
20260505174048 45 262 8.0 14.0 0.00 0.00 0.00 44 1011.8
20260505173547 45 98 6.0 18.0 0.00 0.00 0.00 44 1011.9
20260505173050 45 6 4.0 21.0 0.00 0.00 0.00 46 1011.9
20260505172550 45 350 7.0 21.0 0.00 0.00 0.00 44 1011.8
20260505172047 45 250 9.0 19.0 0.00 0.00 0.00 43 1011.7
20260505171547 45 290 9.0 15.0 0.00 0.00 0.00 44 1012.0
20260505171049 45 41 4.0 14.0 0.00 0.00 0.00 46 1012.0
20260505170548 44 357 5.0 15.0 0.00 0.00 0.00 46 1012.0
20260505170046 45 290 6.0 15.0 0.00 0.00 0.00 44 1012.0
20260505165545 45 274 4.0 19.0 0.00 0.00 0.00 43 1012.0
20260505165045 46 292 6.0 19.0 0.00 0.00 0.00 42 1012.0
20260505164557 46 326 7.0 13.0 0.00 0.00 0.00 43 1011.8
20260505164043 46 339 4.0 12.0 0.00 0.00 0.00 45 1011.9
20260505163542 45 317 3.0 12.0 0.00 0.00 0.00 47 1011.9
20260505163048 44 20 5.0 14.0 0.00 0.00 0.00 47 1011.9
20260505162545 45 12 7.0 14.0 0.00 0.00 0.00 45 1011.9
20260505162040 44 47 6.0 13.0 0.00 0.00 0.00 47 1011.9
20260505161543 44 266 5.0 14.0 0.00 0.00 0.00 46 1011.8
20260505161039 43 253 7.0 14.0 0.00 0.00 0.00 46 1011.9
20260505160539 43 56 7.0 12.0 0.00 0.00 0.00 46 1012.0
20260505153048 43 296 5.0 14.0 0.00 0.00 0.00 47 1011.8
20260505152535 42 332 5.0 14.0 0.00 0.00 0.00 48 1011.8
20260505152033 42 29 5.0 13.0 0.00 0.00 0.00 49 1011.8
20260505151541 43 336 6.0 13.0 0.00 0.00 0.00 48 1011.8
20260505151032 43 73 3.0 9.0 0.00 0.00 0.00 49 1011.7
20260505150532 43 309 5.0 9.0 0.00 0.00 0.00 48 1011.7
20260505140524 41 16 2.0 8.0 0.00 0.00 0.00 52 1011.3
20260505125016 37 60 5.0 10.0 0.00 0.00 0.00 54 1010.5
20260505124515 37 347 5.0 9.0 0.00 0.00 0.00 53 1010.5
20260505124017 37 51 5.0 12.0 0.00 0.00 0.00 54 1010.5
20260505123516 37 49 5.0 12.0 0.00 0.00 0.00 55 1010.4
20260505123012 37 352 4.0 10.0 0.00 0.00 0.00 55 1010.4
20260505122511 37 34 5.0 10.0 0.00 0.00 0.00 56 1010.3
20260505122013 37 8 3.0 7.0 0.00 0.00 0.00 56 1010.3
20260505121510 36 13 2.0 8.0 0.00 0.00 0.00 57 1010.1
20260505121010 36 60 1.0 9.0 0.00 0.00 0.00 58 1010.1
20260505120507 36 9 3.0 10.0 0.00 0.00 0.00 58 1010.0
20260505120007 36 349 3.0 8.0 0.00 0.00 0.00 60 1010.0
20260505115505 36 360 2.0 8.0 0.00 0.00 0.00 61 1009.9
20260505115004 35 13 2.0 6.0 0.00 0.00 0.00 64 1009.8
20260505114504 35 33 0.0 3.0 0.00 0.00 0.00 66 1009.9
20260505114004 35 42 1.0 4.0 0.00 0.00 0.00 67 1009.8
20260505113503 35 6 1.0 6.0 0.00 0.00 0.00 68 1009.7
20260505113001 34 351 2.0 6.0 0.00 0.00 0.00 68 1009.6
20260505112502 34 44 2.0 6.0 0.00 0.00 0.00 70 1009.5
20260505112002 34 352 1.0 7.0 0.00 0.00 0.00 71 1009.5
20260505111600 34 309 3.0 7.0 0.00 0.00 0.00 71 1009.4
20260505111102 34 309 1.0 5.0 0.00 0.00 0.00 72 1009.4
20260505110558 34 353 1.0 4.0 0.00 0.00 0.00 72 1009.3
20260505110105 34 13 1.0 5.0 0.00 0.00 0.00 72 1009.3
20260505102007 36 359 3.0 7.0 0.00 0.00 0.00 71 1009.1
20260505101508 36 353 0.0 9.0 0.00 0.00 0.00 71 1009.1
20260505101005 36 357 3.0 9.0 0.00 0.00 0.00 71 1009.1
20260505100506 36 13 3.0 8.0 0.00 0.00 0.00 70 1009.0
20260505100008 36 9 4.0 8.0 0.00 0.00 0.00 70 1009.0
20260505095505 36 29 1.0 9.0 0.00 0.00 0.00 70 1009.1
20260505095002 37 5 4.0 9.0 0.00 0.00 0.00 70 1009.0
20260505094607 37 333 1.0 6.0 0.00 0.00 0.00 70 1009.0
20260505094059 37 33 3.0 7.0 0.00 0.00 0.00 70 1008.9
20260505093558 37 338 2.0 7.0 0.00 0.00 0.00 70 1008.9
20260505093057 37 27 1.0 8.0 0.00 0.00 0.00 69 1008.8
20260505092556 37 319 2.0 8.0 0.00 0.00 0.00 69 1008.7
20260505092050 38 358 2.0 8.0 0.00 0.00 0.00 69 1008.7
20260505091557 38 354 4.0 8.0 0.00 0.00 0.00 69 1008.7
20260505091049 38 349 2.0 7.0 0.00 0.00 0.00 68 1008.7
20260505090548 38 324 1.0 12.0 0.00 0.00 0.00 68 1008.6
20260505090056 38 12 2.0 12.0 0.00 0.00 0.00 67 1008.4
20260505085547 38 332 3.0 12.0 0.00 0.00 0.00 67 1008.4
20260505085047 38 336 3.0 12.0 0.00 0.00 0.00 67 1008.4
20260505084549 38 343 4.0 10.0 0.00 0.00 0.00 67 1008.3
20260505084044 38 343 2.0 7.0 0.00 0.00 0.00 67 1008.3
20260505083544 38 343 3.0 9.0 0.00 0.00 0.00 67 1008.2
20260505083048 38 345 2.0 8.0 0.00 0.00 0.00 67 1008.1
20260505082543 38 309 3.0 7.0 0.00 0.00 0.00 67 1008.0
20260505082044 38 345 3.0 7.0 0.00 0.00 0.00 67 1008.0
20260505081555 38 345 2.0 7.0 0.00 0.00 0.00 67 1008.0
20260505081040 38 349 0.0 7.0 0.00 0.00 0.00 66 1007.9
20260505080541 38 353 3.0 9.0 0.00 0.00 0.00 66 1007.9
20260505080045 38 345 4.0 9.0 0.00 0.00 0.00 66 1007.9
20260505075537 38 309 2.0 8.0 0.00 0.00 0.00 66 1007.9
20260505075111 38 292 3.0 8.0 0.00 0.00 0.00 66 1007.9
20260505074547 38 313 3.0 9.0 0.00 0.00 0.00 66 1007.8
20260505074036 38 260 2.0 9.0 0.00 0.00 0.00 66 1007.8
20260505073535 38 307 3.0 9.0 0.00 0.00 0.00 66 1007.8
20260505073034 38 301 1.0 5.0 0.00 0.00 0.00 66 1007.8
20260505072532 38 259 1.0 9.0 0.00 0.00 0.00 65 1007.9
20260505072032 38 338 1.0 9.0 0.00 0.00 0.00 64 1007.9
20260505071531 38 336 2.0 6.0 0.00 0.00 0.00 64 1007.9
20260505071031 38 299 2.0 7.0 0.00 0.00 0.00 64 1007.9
20260505070531 38 314 1.0 7.0 0.00 0.00 0.00 63 1007.7
20260505070031 38 335 1.0 7.0 0.00 0.00 0.00 63 1007.8
20260505065532 39 323 2.0 8.0 0.00 0.00 0.00 63 1007.7
20260505065030 38 307 2.0 8.0 0.00 0.00 0.00 64 1007.8
20260505064530 39 287 3.0 9.0 0.00 0.00 0.00 64 1007.8
20260505064029 39 296 4.0 9.0 0.00 0.00 0.00 64 1007.9
20260505063527 39 294 2.0 8.0 0.00 0.00 0.00 63 1007.9
20260505063034 39 290 1.0 5.0 0.00 0.00 0.00 63 1007.7
20260505062526 39 263 1.0 7.0 0.00 0.00 0.00 63 1007.6
20260505062026 39 311 2.0 7.0 0.00 0.00 0.00 63 1007.7
20260505061530 39 326 1.0 4.0 0.00 0.00 0.00 62 1007.8
20260505061023 39 309 1.0 5.0 0.00 0.00 0.00 61 1007.8
20260505060522 39 298 0.0 5.0 0.00 0.00 0.00 60 1007.7
20260505060022 40 341 2.0 5.0 0.00 0.00 0.00 60 1007.7
20260505055520 40 1 1.0 7.0 0.00 0.00 0.00 59 1007.6
20260505055020 40 42 3.0 7.0 0.00 0.00 0.00 59 1007.7